• In Spain
  • List of Countries
  • For 7 days
  • Water Temperature
  • Satellite Maps
  • Weather Map
  • Weather Widgets
  • user-avatar
    Login

    Hourly Weather Annovka

    Today, 18 June, Monday

    Time Temperature Precipitation Wind Pressure Humidity
    00:00 +15°C° 0 mm 1 mps 746 mmHg 80%
    01:00 +14°C° 0 mm 1 mps 746 mmHg 80%
    02:00 +14°C° 0 mm 1 mps 746 mmHg 80%
    03:00 +14°C° 0 mm 1 mps 745 mmHg 80%
    04:00 +14°C° 0 mm 1 mps 745 mmHg 80%
    05:00 +15°C° 0 mm 1 mps 745 mmHg 79%
    06:00 +16°C° 0 mm 1 mps 745 mmHg 79%
    07:00 +19°C° 0 mm 1 mps 745 mmHg 73%
    08:00 +21°C° 0 mm 1 mps 745 mmHg 68%
    09:00 +21°C° 0 mm 0 mps 745 mmHg 62%
    10:00 +22°C° 0 mm 0 mps 745 mmHg 57%
    11:00 +23°C° 0 mm 0 mps 745 mmHg 52%
    12:00 +24°C° 0 mm 0 mps 745 mmHg 48%
    13:00 +24°C° 0 mm 0 mps 745 mmHg 47%
    14:00 +26°C° 0 mm 1 mps 745 mmHg 46%
    15:00 +26°C° 0 mm 1 mps 745 mmHg 45%
    16:00 +26°C° 0 mm 1 mps 745 mmHg 48%
    17:00 +26°C° 0 mm 1 mps 744 mmHg 52%
    18:00 +26°C° 0 mm 1 mps 744 mmHg 55%
    19:00 +24°C° 0 mm 1 mps 744 mmHg 59%
    20:00 +22°C° 0 mm 1 mps 744 mmHg 63%
    21:00 +20°C° 0 mm 1 mps 744 mmHg 67%
    22:00 +19°C° 0 mm 1 mps 744 mmHg 69%
    23:00 +18°C° 0 mm 1 mps 744 mmHg 71%

    Tomorrow, 19 June, Tuesday

    Time Temperature Precipitation Wind Pressure Humidity
    00:00 +18°C° 0 mm 1 mps 744 mmHg 72%
    01:00 +16°C° 0 mm 1 mps 744 mmHg 74%
    02:00 +16°C° 0 mm 1 mps 744 mmHg 75%
    03:00 +16°C° 0 mm 2 mps 744 mmHg 77%
    04:00 +16°C° 0 mm 2 mps 744 mmHg 78%
    05:00 +17°C° 0 mm 2 mps 744 mmHg 80%
    06:00 +17°C° 0 mm 2 mps 744 mmHg 81%
    07:00 +19°C° 0.1 mm 2 mps 744 mmHg 78%
    08:00 +20°C° 0.1 mm 3 mps 744 mmHg 75%
    09:00 +22°C° 0.1 mm 3 mps 744 mmHg 73%
    10:00 +22°C° 0.4 mm 3 mps 744 mmHg 75%
    11:00 +22°C° 0.4 mm 3 mps 744 mmHg 76%
    12:00 +22°C° 0.4 mm 3 mps 744 mmHg 78%
    13:00 +23°C° 0.4 mm 4 mps 744 mmHg 76%
    14:00 +25°C° 0.4 mm 4 mps 743 mmHg 74%
    15:00 +25°C° 0.4 mm 4 mps 743 mmHg 72%
    16:00 +25°C° 0.3 mm 4 mps 743 mmHg 74%
    17:00 +25°C° 0.3 mm 4 mps 742 mmHg 75%
    18:00 +25°C° 0.3 mm 4 mps 742 mmHg 77%
    19:00 +23°C° 0.2 mm 4 mps 742 mmHg 82%
    20:00 +21°C° 0.2 mm 3 mps 742 mmHg 86%
    21:00 +20°C° 0.2 mm 3 mps 742 mmHg 91%
    22:00 +19°C° 0 mm 3 mps 742 mmHg 92%
    23:00 +19°C° 0 mm 3 mps 742 mmHg 93%

    Day after tomorrow, 20 June, Wednesday

    Time Temperature Precipitation Wind Pressure Humidity
    00:00 +18°C° 0 mm 3 mps 742 mmHg 94%
    01:00 +18°C° 0 mm 3 mps 742 mmHg 95%
    02:00 +18°C° 0 mm 3 mps 742 mmHg 95%
    03:00 +17°C° 0 mm 3 mps 742 mmHg 96%
    04:00 +17°C° 0 mm 3 mps 742 mmHg 94%
    05:00 +18°C° 0 mm 3 mps 742 mmHg 93%
    06:00 +18°C° 0 mm 3 mps 742 mmHg 92%
    07:00 +19°C° 0 mm 4 mps 742 mmHg 87%
    08:00 +20°C° 0 mm 4 mps 743 mmHg 82%
    09:00 +21°C° 0 mm 4 mps 743 mmHg 76%
    10:00 +22°C° 0 mm 5 mps 743 mmHg 73%
    11:00 +22°C° 0 mm 5 mps 743 mmHg 70%
    12:00 +23°C° 0 mm 6 mps 743 mmHg 67%
    13:00 +23°C° 0 mm 6 mps 743 mmHg 65%
    14:00 +23°C° 0 mm 6 mps 743 mmHg 63%
    15:00 +23°C° 0 mm 6 mps 743 mmHg 61%
    16:00 +23°C° 0 mm 5 mps 743 mmHg 63%
    17:00 +23°C° 0 mm 4 mps 743 mmHg 65%
    18:00 +22°C° 0 mm 4 mps 743 mmHg 67%
    19:00 +21°C° 0 mm 3 mps 743 mmHg 71%
    20:00 +19°C° 0 mm 3 mps 743 mmHg 75%
    21:00 +17°C° 0 mm 2 mps 743 mmHg 79%
    22:00 +17°C° 0 mm 3 mps 744 mmHg 82%
    23:00 +16°C° 0 mm 3 mps 744 mmHg 84%

    21 June, Thursday

    Time Temperature Precipitation Wind Pressure Humidity
    00:00 +14°C° 0 mm 3 mps 744 mmHg 86%
    01:00 +14°C° 0 mm 3 mps 744 mmHg 88%
    02:00 +13°C° 0 mm 3 mps 744 mmHg 90%
    03:00 +13°C° 0 mm 3 mps 744 mmHg 93%
    04:00 +13°C° 0 mm 3 mps 744 mmHg 91%
    05:00 +14°C° 0 mm 3 mps 744 mmHg 90%
    06:00 +14°C° 0 mm 3 mps 744 mmHg 88%
    07:00 +17°C° 0 mm 3 mps 744 mmHg 83%
    08:00 +18°C° 0 mm 3 mps 744 mmHg 78%
    09:00 +20°C° 0 mm 3 mps 744 mmHg 73%
    10:00 +21°C° 0 mm 3 mps 744 mmHg 68%
    11:00 +22°C° 0 mm 4 mps 744 mmHg 64%
    12:00 +23°C° 0 mm 4 mps 744 mmHg 59%
    13:00 +23°C° 0 mm 4 mps 743 mmHg 59%
    14:00 +25°C° 0 mm 4 mps 743 mmHg 59%
    15:00 +25°C° 0 mm 4 mps 743 mmHg 59%
    16:00 +25°C° 0 mm 3 mps 743 mmHg 61%
    17:00 +25°C° 0 mm 3 mps 743 mmHg 64%
    18:00 +25°C° 0 mm 2 mps 743 mmHg 67%
    19:00 +23°C° 0 mm 2 mps 743 mmHg 71%
    20:00 +21°C° 0 mm 2 mps 743 mmHg 76%
    21:00 +20°C° 0 mm 1 mps 743 mmHg 81%
    22:00 +19°C° 0 mm 1 mps 743 mmHg 83%
    23:00 +19°C° 0 mm 1 mps 743 mmHg 85%

    22 June, Friday

    Time Temperature Precipitation Wind Pressure Humidity
    00:00 +17°C° 0 mm 2 mps 743 mmHg 88%
    01:00 +17°C° 0 mm 2 mps 743 mmHg 89%
    02:00 +16°C° 0 mm 2 mps 743 mmHg 89%
    03:00 +16°C° 0 mm 2 mps 743 mmHg 90%
    04:00 +16°C° 0 mm 2 mps 743 mmHg 89%
    05:00 +17°C° 0 mm 2 mps 743 mmHg 88%
    06:00 +17°C° 0 mm 2 mps 743 mmHg 88%
    07:00 +19°C° 0 mm 3 mps 743 mmHg 82%
    08:00 +21°C° 0 mm 4 mps 742 mmHg 77%
    09:00 +23°C° 0 mm 4 mps 742 mmHg 72%
    10:00 +25°C° 0 mm 4 mps 742 mmHg 69%
    11:00 +25°C° 0 mm 5 mps 742 mmHg 66%
    12:00 +26°C° 0 mm 5 mps 742 mmHg 63%
    13:00 +27°C° 0 mm 5 mps 741 mmHg 63%
    14:00 +27°C° 0 mm 5 mps 741 mmHg 62%
    15:00 +27°C° 0 mm 5 mps 741 mmHg 62%
    16:00 +27°C° 0 mm 5 mps 740 mmHg 65%
    17:00 +27°C° 0 mm 4 mps 740 mmHg 68%
    18:00 +27°C° 0 mm 4 mps 740 mmHg 71%
    19:00 +25°C° 0 mm 4 mps 740 mmHg 76%
    20:00 +23°C° 0 mm 4 mps 740 mmHg 80%
    21:00 +21°C° 0 mm 4 mps 740 mmHg 85%
    22:00 +21°C° 0 mm 3 mps 739 mmHg 87%
    23:00 +20°C° 0 mm 3 mps 739 mmHg 89%

    23 June, Saturday

    Time Temperature Precipitation Wind Pressure Humidity
    00:00 +20°C° 0 mm 3 mps 739 mmHg 91%
    01:00 +20°C° 0 mm 4 mps 739 mmHg 92%
    02:00 +19°C° 0 mm 4 mps 738 mmHg 93%
    03:00 +19°C° 0 mm 4 mps 738 mmHg 94%
    04:00 +20°C° 0 mm 4 mps 738 mmHg 92%
    05:00 +20°C° 0 mm 5 mps 738 mmHg 91%
    06:00 +20°C° 0 mm 5 mps 738 mmHg 89%
    07:00 +21°C° 0.1 mm 5 mps 738 mmHg 86%
    08:00 +22°C° 0.1 mm 4 mps 738 mmHg 82%
    09:00 +23°C° 0.1 mm 4 mps 738 mmHg 79%
    10:00 +25°C° 0.8 mm 5 mps 738 mmHg 76%
    11:00 +26°C° 0.8 mm 5 mps 738 mmHg 73%
    12:00 +27°C° 0.8 mm 6 mps 738 mmHg 69%
    13:00 +26°C° 1.3 mm 5 mps 738 mmHg 73%
    14:00 +25°C° 1.3 mm 5 mps 738 mmHg 76%
    15:00 +25°C° 1.3 mm 4 mps 738 mmHg 79%
    16:00 +23°C° 1 mm 4 mps 738 mmHg 82%
    17:00 +22°C° 1 mm 4 mps 739 mmHg 85%
    18:00 +21°C° 1 mm 3 mps 739 mmHg 88%
    19:00 +19°C° 0.2 mm 4 mps 739 mmHg 90%
    20:00 +18°C° 0.2 mm 4 mps 739 mmHg 92%
    21:00 +17°C° 0.2 mm 4 mps 739 mmHg 94%
    22:00 +15°C° 0.1 mm 4 mps 739 mmHg 94%
    23:00 +15°C° 0.1 mm 4 mps 739 mmHg 94%
    Show more